Other Surface Observations
Issued by NWS Tucson, AZ

Home | Current Version | Previous Version | Text Only | Print | Product List | Glossary On
Versions: 1 2 3 4 5 6 7 8 9 10 11 12 13 14 15 16 17 18 19 20 21 22 23 24 25 26 27 28 29 30 31 32 33 34 35 36 37 38 39 40 41 42 43 44 45 46 47 48 49 50
503
SXUS55 KTWC 150015
OSOTWC

WEATHER ROUNDUP FOR SOUTHEAST ARIZONA
NATIONAL WEATHER SERVICE TUCSON AZ
515 PM MST SUN FEB 14 2016

AZZ504>506-514-150115-
LOCATION       SKY/WX    TMP DP  RH WIND       PRES   REMARKS
TUCSON         SUNNY     80  17   9 N10       29.98S
DAVIS-MONTHAN  SUNNY     77  18  11 N13       29.96S
CHILDRENS PARK N/A      N/A N/A  10 NW8               PIMA CO DEQ
ALVERNON/22ND  N/A       81 N/A N/A NW6               PIMA CO DEQ
CHERRY/GLENN   N/A       81 N/A N/A NW6               PIMA CO DEQ
TANGERINE      N/A       78 N/A N/A NW8               PIMA CO DEQ
CONTL RANCH    N/A       80  21  11 NW8               PIMA CO DEQ
GRANT/1ST      N/A       80  19  10 NE8               PIMA CO DEQ
CRAYCROFT/22ND N/A       79  15   9 N/A               PIMA CO DEQ
GOLFLINKS/KOLB N/A       80  16   9 NW9               PIMA CO DEQ
AJO/12TH       N/A       81  17   9 W6                PIMA CO DEQ
SAGUARO EAST   N/A       26 -23  10 NW10              PIMA CO DEQ
FAIRGROUNDS    N/A       78 N/A N/A N/A               PIMA CO DEQ
SAGUARO        N/A       80  19  10 W11G21            *SABINO CYN
SAN CARLOS     N/A       80  23  12 W8G20             *SAN CARLOS
GREEN VALLEY   N/A       80  13   8 N8                PIMA CO DEQ
HORSE CAMP CYN N/A       73  21  14 W13G22            *ARAVAIPA CYN
RINCON MTNS    N/A       55  10  16 W3G12             *NR MANNING CAMP
$$

AZZ509>511-150115-
LOCATION       SKY/WX    TMP DP  RH WIND       PRES   REMARKS
SAFFORD        MOSUNNY   76   6   7 NW16      29.92F
STRAY HORSE    N/A       59  -2   8 W10G16            *
TRAIL CABIN    N/A       62   0   8 NW9G15            *N OF GRANVILLE
BLACK HILLS    N/A       76  16  10 NW11G22           *N OF FT THOMAS
DRY LAKE       N/A       56  13  18 W4G12             *NATANES MTNS
NOON CREEK     N/A       72  18  13 NE3               *PINALENO MTNS
COLUMBINE      N/A       50   8  18 W4G13             *PINALENO MTNS
GUTHRIE        N/A       63   8  11 W14G29            *SW OF GUTHRIE
$$

AZZ502-503-513-150115-
LOCATION       SKY/WX    TMP DP  RH WIND       PRES   REMARKS
NOGALES        SUNNY     76  10   8 N8        30.02S
SELLS          N/A       82  18   9 NW8G14            *
SASABE         N/A       79   6   6 NE10G22           *ALTAR VLY
HOPKINS        N/A       65   9  11 W6G24             *SANTA RITA MTNS
CARR CYN       N/A       68   5   8 NW5G11            *W OF HEREFORD
$$

AZZ507-508-512-150115-
LOCATION       SKY/WX    TMP DP  RH WIND       PRES   REMARKS
SIERRA VISTA   SUNNY     71   3   7 NW9       30.07R
DOUGLAS        SUNNY     75   7   7 NW18      30.02R
EMPIRE MTNS    N/A       71   4   7 NW10G21           *LAS CIENEGAS NCA
MULESHOE RANCH N/A       73  15  11 NW12G21           *PRESERVE
HEADQUARTERS   N/A       70  13  11 W7G15             *CHIRICAHUA MTNS
$$

.............................NOTES.............................
THIS IS AN AUTOMATED COLLECTIVE WITH MINIMAL QUALITY CONTROL.
PIMA CO DEQ SITES HAVE NONSTANDARD WIND SENSOR HEIGHTS.
PIMA CO DEQ SITES DO NOT REPORT WIND GUSTS.
* INDICATES WIND SENSORS LOCATED AT 20 FEET INSTEAD OF 33 FEET.
..............................KEY..............................
SKY/WX - SKY CONDITION/WEATHER
TMP    - TEMPERATURE IN FAHRENHEIT
DP     - DEWPOINT IN FAHRENHEIT
RH     - RELATIVE HUMIDITY IN PERCENT
WIND   - DIRECTION AND SPEED IN MILES PER HOUR (MPH)
VRB    - VARIABLE WIND DIRECTION
PRES   - MEAN SEA LEVEL PRESSURE IN INCHES OF MERCURY
         F - FALLING PRESSURE   R - RISING PRESSURE
         S - STEADY PRESSURE
VSB    - VISIBILITY IN MILES
HX     - HEAT INDEX IN FAHRENHEIT
WCI    - WIND CHILL INDEX IN FAHRENHEIT
N/A    - NOT AVAILABLE
AFB    - AIR FORCE BASE
         DAVIS-MONTHAN IS DAVIS-MONTHAN AIR FORCE BASE
CYN    - CANYON
MTNS   - MOUNTAINS
NCA    - NATIONAL CONSERVATION AREA
NR     - NEAR
VLY    - VALLEY
CONTL  - CONTINENTAL
PIMA CO DEQ - PIMA COUNTY DEPT OF ENVIRONMENTAL QUALITY



USA.gov is the U.S. government's official web portal to all federal, state and local government web resources and services.